SCP
-0 -0 -0 -0 -0 -0 0 0 0 -0 0 0 0 0 0 0 0 -0 -0 -0 0 -0 -0 -0 -0 -0 0 0 0 0 0 0 0
-0 -0 -0 -0 -0 0 -0 0 -0 0 0 0 0 0 0 0 -0 0 0 0 0 0 -0 -0 -0 -0 -0 0 0 -0 0 0 0
0 -0 -0 -0 -0 -0 0 0 0 0 0 0 0 0 0 0 0 -0 -0 -0 -0 -0 0 0 0 0 0 -0 -0 -0 0 0 0
-0 -0 -0 -0 -0 0 -0 0 -0 0 -0 -0 0 0 0 0 0 0 -0 -0 -0 -0 0 -0 0 0 0 0 0 0 0 0 0
0 -0 -0 -0 -0 -0 -0 -0 -0 -0 -0 -0 0 0 0 0 0 -0 -0 -0 -0 0 0 0 0 0 0 0 0 0 0 0 0
-0 -0 -0 -0 -0 -0 -0 -0 0 0 1 0 0 0 0 0 0 -0 -0 -0 -0 0 0 0 0 0 0 -0 0 0 0 0 0
-0 -0 -0 -0 -0 -0 -0 -0 -0 0 0 0 -0 0 0 0 0 0 0 0 0 0 0 0 0 0 0 0 0 0 0 0 0
0 0 0 0 -0 0 0 0 0 0 0 0 0 0 0 0 0 0 0 0 0 0 0 0 0 -0 -0 -0 0 0 0 -0 -0
0 0 -0 0 0 0 0 0 0 0 0 0 0 0 0 0 0 0 0 0 0 0 0 0 0 0 0 0 0 0 -0 -0 -0
0 0 -0 -0 0 0 0 0 0 0 0 0 0 0 0 0 0 0 0 0 0 0 0 -0 0 0 0 0 0 0 0 0 0
0 0 -0 0 0 0 0 0 0 0 0 0 0 0 0 0 0 0 0 0 0 0 -0 -0 -0 0 0 0 0 0 0 0 0
0 0 0 1 0 0 0 0 0 0 0 0 0 0 0 0 0 0 0 0 -0 0 0 0 0 0 0 0 0 0 0 0 0
0 0 0 0 0 0 0 0 0 0 0 0 0 0 0 0 0 0 0 0 0 0 0 0 0 0 0 0 0 0 0 0 0
0 0 0 0 0 0 0 0 0 0 0 0 0 0 0 0 0 0 0 0 0 0 0 0 0 0 0 0 0 0 0 0 0
0 0 0 0 0 0 0 0 0 0 0 0 0 0 0 0 0 0 0 0 0 0 0 0 0 0 0 0 0 0 0 0 0
0 0 0 0 0 0 0 0 0 0 0 0 0 0 0 0 0 0 0 0 0 0 0 0 0 0 0 0 0 0 0 0 0
0 0 0 0 0 0 0 0 0 0 0 0 0 0 0 -0 0 0 0 0 0 0 0 0 0 0 0 0 0 0 0 0 0
0 0 0 0 0 0 0 0 0 0 0 0 0 0 0 0 0 0 0 0 0 0 0 0 0 0 0 0 0 0 0 0 0
0 0 0 0 0 0 0 0 0 0 0 0 0 0 0 0 0 0 0 0 0 0 0 0 0 0 0 0 0 0 0 0 0
0 0 0 0 0 0 0 0 0 0 0 0 0 0 0 0 0 0 0 0 0 0 0 0 0 0 0 0 0 0 0 0 0
Wind_Speed_500mb
71 86 83 79 68 69 64 68 56 57 67 64 52 50 52 50 40 37 38 43 42 42 36 26 21 31 24 28 28 31 32 26 20
62 68 80 81 79 68 53 65 58 62 65 66 60 52 56 52 47 43 41 41 38 38 39 33 30 31 29 25 27 24 25 29 30
47 56 69 75 67 75 58 42 66 67 79 66 62 53 55 54 55 47 43 43 41 42 35 32 31 32 36 38 31 26 25 25 26
56 57 62 62 71 79 70 47 42 61 70 67 57 57 53 52 52 53 55 48 48 47 41 42 39 44 44 46 37 31 26 26 27
41 50 52 61 68 75 79 69 51 57 64 69 69 56 51 52 54 51 51 60 54 57 50 46 39 31 41 41 42 32 29 27 26
36 44 46 45 51 68 72 79 69 64 61 35 55 65 56 53 51 49 50 51 57 59 56 50 39 42 36 37 41 36 33 33 30
33 30 43 42 42 50 54 72 69 72 62 53 58 43 50 51 60 56 47 43 45 53 57 51 47 43 44 40 38 39 39 40 40
40 36 42 37 33 31 32 42 50 60 64 61 49 62 48 46 60 51 55 55 51 43 46 51 50 51 47 45 46 47 46 46 45
49 44 39 50 49 40 29 29 33 40 41 51 51 58 51 47 48 65 62 59 57 56 52 52 52 50 52 51 49 48 45 46 46
54 48 42 43 32 21 20 18 16 20 21 28 29 25 43 51 38 45 49 54 64 61 60 55 53 58 56 56 53 51 47 46 48
56 51 51 46 30 23 18 19 14 10 10 11 13 12 15 17 22 42 47 56 60 63 61 63 57 57 61 61 60 55 52 49 50
48 54 51 41 36 28 21 19 15 9 6 5 5 10 14 16 18 20 26 30 52 57 57 61 57 59 64 63 59 56 53 49 55
57 53 45 42 31 23 17 16 17 21 19 15 14 16 18 23 26 27 34 36 41 40 42 46 45 55 63 66 63 55 52 48 50
54 48 41 32 23 14 9 12 21 23 22 20 16 20 23 20 28 36 36 34 36 45 48 52 52 53 53 52 53 52 54 53 55
52 44 34 24 17 11 11 15 23 28 25 23 21 25 25 27 29 30 35 35 37 41 44 47 46 51 53 49 45 49 51 51 55
44 38 30 21 15 10 11 13 19 26 25 23 22 23 24 31 31 30 29 28 28 27 29 35 41 44 44 46 48 50 51 51 55
43 34 26 17 13 14 19 24 21 21 26 25 23 25 32 34 27 27 27 27 26 30 32 36 39 40 40 41 42 43 45 46 44
41 32 21 12 14 19 23 22 18 16 18 21 25 32 37 38 34 28 25 27 31 36 38 37 36 37 39 37 36 30 25 25 18
40 28 18 12 9 10 15 17 15 15 20 26 33 36 25 22 22 23 28 30 38 42 35 35 37 38 39 38 33 25 23 25 27
36 25 13 4 8 16 20 21 21 24 26 30 30 25 24 28 27 32 34 33 33 33 36 36 37 35 33 28 26 23 21 21 28
Wind_Direction_500mb
191 202 207 206 212 210 214 218 217 210 225 228 231 228 218 222 225 224 233 232 235 230 232 225 212 224 228 225 229 234 240 242 236
182 200 213 213 207 209 210 208 209 215 220 228 231 232 221 222 224 222 224 219 222 221 237 236 228 224 222 224 231 231 243 250 246
186 200 206 212 209 207 208 218 227 230 227 229 228 232 223 223 229 230 224 222 219 227 232 241 246 240 232 228 224 234 246 244 237
182 191 203 214 218 214 209 204 231 211 218 224 226 228 231 226 229 232 234 226 220 228 238 246 254 255 259 241 231 227 238 236 225
187 196 197 213 220 219 220 217 231 215 226 231 237 232 235 232 233 231 233 233 225 229 237 242 248 246 247 247 242 228 224 235 233
155 165 179 212 215 219 220 220 224 224 219 218 226 235 230 235 235 232 235 235 232 229 236 239 244 247 248 239 239 240 239 244 244
149 163 168 168 175 199 212 221 222 222 222 221 210 231 226 244 237 233 238 239 237 237 239 242 244 250 251 245 243 240 243 247 258
153 147 156 151 151 166 195 208 218 223 237 224 234 230 246 247 236 235 233 239 240 240 243 247 248 248 247 243 249 251 247 247 253
160 149 146 150 148 145 149 163 195 203 217 224 236 242 232 223 242 247 241 235 244 239 234 239 248 247 247 245 248 250 249 250 249
169 165 165 167 169 155 157 170 197 207 206 210 229 232 228 225 261 231 229 237 235 238 239 234 243 248 253 255 256 256 257 255 254
179 176 172 167 162 156 149 144 151 169 196 217 230 217 210 229 249 234 234 226 254 243 249 258 238 244 254 256 258 259 260 260 258
187 179 167 165 170 173 175 189 191 175 209 199 240 252 258 262 263 262 236 257 229 239 259 253 250 252 254 256 259 259 259 261 260
153 160 162 164 161 159 164 179 211 232 234 240 266 267 268 272 270 258 250 247 243 250 255 253 259 258 256 256 254 254 254 256 261
149 149 152 158 164 182 196 223 217 222 224 230 267 280 274 271 264 261 260 259 255 252 252 254 257 254 251 249 251 251 253 253 252
148 151 154 163 178 185 219 219 215 214 226 238 259 283 284 286 292 255 255 257 261 255 250 255 259 261 261 258 257 254 254 255 255
160 163 166 180 199 234 225 212 229 249 254 255 271 279 295 298 294 271 267 264 264 253 251 258 260 261 264 264 261 259 259 260 260
167 172 183 207 248 257 260 265 263 241 244 236 248 271 291 303 281 270 266 264 255 255 257 266 271 269 269 268 272 270 266 265 265
177 180 187 216 256 266 264 251 260 265 260 262 275 283 285 284 277 268 264 260 264 260 266 269 269 268 270 273 276 285 281 277 265
178 181 192 228 275 288 256 248 235 242 257 275 289 297 272 270 259 262 259 264 280 280 271 268 268 265 266 265 266 269 262 260 258
182 189 206 264 309 284 266 259 258 258 267 281 282 281 268 277 249 251 259 265 275 269 271 274 270 268 265 249 248 256 249 251 249
Wind_Speed_850mb
71 86 83 79 68 69 64 68 56 57 67 64 52 50 52 50 40 37 38 43 42 42 36 26 21 31 24 28 28 31 32 26 20
62 68 80 81 79 68 53 65 58 62 65 66 60 52 56 52 47 43 41 41 38 38 39 33 30 31 29 25 27 24 25 29 30
47 56 69 75 67 75 58 42 66 67 79 66 62 53 55 54 55 47 43 43 41 42 35 32 31 32 36 38 31 26 25 25 26
56 57 62 62 71 79 70 47 42 61 70 67 57 57 53 52 52 53 55 48 48 47 41 42 39 44 44 46 37 31 26 26 27
41 50 52 61 68 75 79 69 51 57 64 69 69 56 51 52 54 51 51 60 54 57 50 46 39 31 41 41 42 32 29 27 26
36 44 46 45 51 68 72 79 69 64 61 35 55 65 56 53 51 49 50 51 57 59 56 50 39 42 36 37 41 36 33 33 30
33 30 43 42 42 50 54 72 69 72 62 53 58 43 50 51 60 56 47 43 45 53 57 51 47 43 44 40 38 39 39 40 40
40 36 42 37 33 31 32 42 50 60 64 61 49 62 48 46 60 51 55 55 51 43 46 51 50 51 47 45 46 47 46 46 45
49 44 39 50 49 40 29 29 33 40 41 51 51 58 51 47 48 65 62 59 57 56 52 52 52 50 52 51 49 48 45 46 46
54 48 42 43 32 21 20 18 16 20 21 28 29 25 43 51 38 45 49 54 64 61 60 55 53 58 56 56 53 51 47 46 48
56 51 51 46 30 23 18 19 14 10 10 11 13 12 15 17 22 42 47 56 60 63 61 63 57 57 61 61 60 55 52 49 50
48 54 51 41 36 28 21 19 15 9 6 5 5 10 14 16 18 20 26 30 52 57 57 61 57 59 64 63 59 56 53 49 55
57 53 45 42 31 23 17 16 17 21 19 15 14 16 18 23 26 27 34 36 41 40 42 46 45 55 63 66 63 55 52 48 50
54 48 41 32 23 14 9 12 21 23 22 20 16 20 23 20 28 36 36 34 36 45 48 52 52 53 53 52 53 52 54 53 55
52 44 34 24 17 11 11 15 23 28 25 23 21 25 25 27 29 30 35 35 37 41 44 47 46 51 53 49 45 49 51 51 55
44 38 30 21 15 10 11 13 19 26 25 23 22 23 24 31 31 30 29 28 28 27 29 35 41 44 44 46 48 50 51 51 55
43 34 26 17 13 14 19 24 21 21 26 25 23 25 32 34 27 27 27 27 26 30 32 36 39 40 40 41 42 43 45 46 44
41 32 21 12 14 19 23 22 18 16 18 21 25 32 37 38 34 28 25 27 31 36 38 37 36 37 39 37 36 30 25 25 18
40 28 18 12 9 10 15 17 15 15 20 26 33 36 25 22 22 23 28 30 38 42 35 35 37 38 39 38 33 25 23 25 27
36 25 13 4 8 16 20 21 21 24 26 30 30 25 24 28 27 32 34 33 33 33 36 36 37 35 33 28 26 23 21 21 28
Wind_Direction_850mb
191 202 207 206 212 210 214 218 217 210 225 228 231 228 218 222 225 224 233 232 235 230 232 225 212 224 228 225 229 234 240 242 236
182 200 213 213 207 209 210 208 209 215 220 228 231 232 221 222 224 222 224 219 222 221 237 236 228 224 222 224 231 231 243 250 246
186 200 206 212 209 207 208 218 227 230 227 229 228 232 223 223 229 230 224 222 219 227 232 241 246 240 232 228 224 234 246 244 237
182 191 203 214 218 214 209 204 231 211 218 224 226 228 231 226 229 232 234 226 220 228 238 246 254 255 259 241 231 227 238 236 225
187 196 197 213 220 219 220 217 231 215 226 231 237 232 235 232 233 231 233 233 225 229 237 242 248 246 247 247 242 228 224 235 233
155 165 179 212 215 219 220 220 224 224 219 218 226 235 230 235 235 232 235 235 232 229 236 239 244 247 248 239 239 240 239 244 244
149 163 168 168 175 199 212 221 222 222 222 221 210 231 226 244 237 233 238 239 237 237 239 242 244 250 251 245 243 240 243 247 258
153 147 156 151 151 166 195 208 218 223 237 224 234 230 246 247 236 235 233 239 240 240 243 247 248 248 247 243 249 251 247 247 253
160 149 146 150 148 145 149 163 195 203 217 224 236 242 232 223 242 247 241 235 244 239 234 239 248 247 247 245 248 250 249 250 249
169 165 165 167 169 155 157 170 197 207 206 210 229 232 228 225 261 231 229 237 235 238 239 234 243 248 253 255 256 256 257 255 254
179 176 172 167 162 156 149 144 151 169 196 217 230 217 210 229 249 234 234 226 254 243 249 258 238 244 254 256 258 259 260 260 258
187 179 167 165 170 173 175 189 191 175 209 199 240 252 258 262 263 262 236 257 229 239 259 253 250 252 254 256 259 259 259 261 260
153 160 162 164 161 159 164 179 211 232 234 240 266 267 268 272 270 258 250 247 243 250 255 253 259 258 256 256 254 254 254 256 261
149 149 152 158 164 182 196 223 217 222 224 230 267 280 274 271 264 261 260 259 255 252 252 254 257 254 251 249 251 251 253 253 252
148 151 154 163 178 185 219 219 215 214 226 238 259 283 284 286 292 255 255 257 261 255 250 255 259 261 261 258 257 254 254 255 255
160 163 166 180 199 234 225 212 229 249 254 255 271 279 295 298 294 271 267 264 264 253 251 258 260 261 264 264 261 259 259 260 260
167 172 183 207 248 257 260 265 263 241 244 236 248 271 291 303 281 270 266 264 255 255 257 266 271 269 269 268 272 270 266 265 265
177 180 187 216 256 266 264 251 260 265 260 262 275 283 285 284 277 268 264 260 264 260 266 269 269 268 270 273 276 285 281 277 265
178 181 192 228 275 288 256 248 235 242 257 275 289 297 272 270 259 262 259 264 280 280 271 268 268 265 266 265 266 269 262 260 258
182 189 206 264 309 284 266 259 258 258 267 281 282 281 268 277 249 251 259 265 275 269 271 274 270 268 265 249 248 256 249 251 249